Simultaneous Nadir Overpasses (SNOs) Predictions

Prediction of SNOs between METOP-A and TERRA Satellite Orbit:

Table of predicted SNOs for the next 14.0 days since TLE Epoch: 11/17/2018
Index Date (METOP-A) Time (METOP-A) Lat,Lon (METOP-A) SZA (METOP-A ) Date (TERRA) Time (TERRA) Lat,Lon (TERRA) SZA (TERRA ) Distance(km) Time Diff (sec)
1 11/19/2018 14:24:20 81.44, 13.89 104.29 11/19/2018 14:24:36 81.43, 13.81 104.29 1.43 16
2 11/19/2018 15:15:00 -81.43,-178.56 75.68 11/19/2018 15:14:03 -81.43,-178.61 75.72 1.06 57
3 11/22/2018 09:58:35 81.43, 80.48 104.91 11/22/2018 09:58:48 81.44, 80.46 104.92 0.69 13
4 11/22/2018 10:49:15 -81.43,-111.93 75.06 11/22/2018 10:48:15 -81.44,-111.94 75.09 0.53 60
5 11/25/2018 05:32:51 81.44, 146.65 105.43 11/25/2018 05:33:01 81.43, 146.73 105.44 1.38 10
6 11/25/2018 06:23:31 -81.43, -45.72 74.54 11/25/2018 06:22:28 -81.43, -45.65 74.56 1.18 63
7 11/28/2018 01:07:05 81.44,-146.79 105.94 11/28/2018 01:07:12 81.44,-146.60 105.97 3.33 7
8 11/28/2018 01:57:45 -81.43, 20.88 74.02 11/28/2018 01:56:39 -81.44, 21.03 74.03 2.73 66
9 11/30/2018 20:41:20 81.43, -80.25 106.39 11/30/2018 20:41:25 81.43, -80.31 106.39 0.93 5




NCC Satellite Simultaneous Nadir Overpasses (SNOs) Prediction Service
